Theta_e
317 320 320 319 318 318 319 319 320 320 320 320 321 320 320 319 319 320 320 320 320 321 319 320 322 322 323 323 323 322 323 323 329 336 337 336 335 334 334 334 332 331 331 332
317 319 319 316 318 318 319 320 321 320 319 320 320 321 320 319 319 319 319 319 319 320 321 321 322 323 324 325 325 325 324 324 324 327 331 337 337 337 337 337 338 337 335 332
318 318 317 318 318 319 319 320 320 319 318 319 320 321 321 321 320 318 319 319 320 320 320 320 320 322 323 325 326 326 325 324 324 324 332 336 338 339 338 339 339 340 339 337
319 317 317 318 319 319 322 319 318 319 321 322 320 324 322 320 319 320 319 318 318 318 319 319 322 325 324 325 327 328 327 324 326 325 330 332 331 336 335 338 340 340 339 340
316 319 321 321 322 319 321 318 320 321 322 322 320 321 319 321 320 320 318 316 316 317 320 324 325 328 327 329 331 332 328 324 329 325 326 330 332 333 339 339 339 340 340 341
318 316 317 318 318 317 317 317 318 320 321 323 320 321 320 320 320 318 315 314 315 317 319 325 324 326 328 331 332 333 333 326 329 334 324 329 332 336 339 340 340 341 341 342
314 315 316 311 315 316 315 316 316 316 317 319 319 319 319 314 313 313 312 313 316 317 318 323 322 322 327 329 331 334 336 332 330 335 327 328 333 337 339 340 341 342 343 343
311 313 313 312 316 315 315 318 313 311 313 315 317 319 319 312 312 310 310 311 313 313 310 312 316 317 319 329 331 335 339 333 331 334 338 339 340 341 342 342 343 343 343 342
308 310 309 310 308 309 312 314 316 318 318 322 318 320 314 312 312 309 308 309 309 310 309 307 309 310 316 325 330 334 337 338 337 340 341 342 343 343 344 343 343 343 339 337
306 303 306 310 306 307 312 311 313 318 319 315 315 320 319 312 311 309 308 309 308 308 307 306 305 306 309 319 328 332 335 337 339 339 342 343 341 342 342 339 339 335 333 332
304 307 305 304 306 305 305 304 310 312 317 314 312 309 309 309 310 309 307 308 307 307 306 305 304 304 305 312 325 330 335 336 336 337 339 341 341 337 335 333 330 330 329 327
304 305 304 303 304 305 306 306 307 308 308 313 314 317 308 310 308 308 307 306 306 307 305 304 303 303 304 310 320 326 329 333 332 332 334 333 333 333 332 328 320 317 317 317
305 304 303 303 305 305 306 305 305 305 306 308 311 311 310 309 307 306 306 306 305 306 304 302 302 302 304 308 318 323 325 328 328 324 328 328 324 322 321 319 316 314 312 310
305 305 304 303 302 303 304 304 304 304 305 305 306 307 306 306 307 305 305 305 306 304 303 302 301 301 302 308 316 320 323 323 323 323 323 321 322 320 321 315 311 309 306 304
304 304 304 304 304 303 303 303 303 303 303 304 304 303 305 305 305 305 305 304 305 303 302 302 303 301 305 310 313 316 321 319 318 319 320 321 320 315 311 311 305 302 302 303
302 301 302 302 302 302 302 302 301 301 302 303 303 304 305 304 304 305 304 304 303 302 301 302 303 303 304 310 312 314 317 319 317 316 315 311 312 311 305 303 304 304 304 301
300 300 300 300 300 300 301 301 301 302 302 302 303 303 304 304 305 306 303 303 302 301 302 303 303 304 306 309 313 314 316 316 314 314 314 311 308 306 303 302 301 300 299 299
298 298 300 301 300 301 300 301 301 301 302 302 302 302 303 303 304 303 303 303 301 302 302 303 303 301 305 307 311 312 312 312 311 311 309 306 305 301 300 299 299 297 296 294
298 299 300 301 301 301 300 300 301 301 302 302 302 302 301 302 302 303 301 301 300 301 301 303 302 301 303 307 309 307 307 306 305 304 302 301 300 299 298 297 297 295 294 293
299 300 301 301 301 301 300 301 301 301 303 301 301 302 302 302 303 303 301 301 300 300 301 302 301 301 302 304 306 307 304 302 301 300 299 298 297 297 296 295 292 291 291 290
299 299 301 301 301 300 301 301 301 301 302 301 301 301 301 301 301 300 300 300 301 300 300 302 301 301 302 302 303 305 304 301 297 297 296 295 296 296 294 292 291 289 288 287
299 299 300 299 300 300 300 300 301 302 301 301 300 300 299 299 299 300 299 301 300 300 301 301 301 301 302 301 301 302 301 297 297 297 296 295 295 293 291 289 287 286 285 284
299 299 299 299 300 300 299 300 299 299 299 299 299 298 298 299 299 299 299 300 299 300 302 301 299 300 300 299 299 299 296 296 297 296 294 293 293 290 287 285 283 283 283 283
298 297 298 299 299 299 298 298 298 298 298 298 298 298 298 299 299 299 300 298 300 301 301 300 298 298 298 296 296 295 294 294 294 293 291 289 286 284 283 283 282 282 282 282
298 298 298 300 299 299 299 298 298 298 298 298 297 298 298 298 298 299 299 299 300 301 301 298 297 296 295 294 293 293 292 293 292 289 287 284 283 282 282 282 282 282 281 280
298 298 299 300 299 298 298 297 297 297 298 298 298 298 298 298 298 298 298 299 300 300 297 296 294 293 292 292 292 291 291 291 288 285 283 282 282 282 281 281 281 280 280 280
Wind_Speed
3 1 4 9 6 2 6 9 13 14 14 8 17 24 19 18 16 22 24 24 27 32 26 26 23 18 19 20 23 26 28 33 46 53 55 55 55 53 53 53 52 50 46 41
1 3 8 0 3 4 5 9 12 9 7 11 16 27 18 9 16 24 21 23 23 24 29 28 24 22 20 22 22 26 31 34 40 48 52 58 57 58 56 57 56 53 48 36
2 4 2 5 6 7 4 7 9 10 5 12 17 22 20 22 24 11 22 17 21 23 27 31 33 30 25 24 28 30 32 27 35 40 46 49 52 52 53 57 58 57 53 40
3 3 1 3 4 7 11 7 8 12 10 12 7 15 20 17 14 18 19 24 27 28 30 32 36 36 32 29 30 34 33 25 25 33 42 47 48 53 54 51 51 48 44 38
2 2 4 5 5 1 6 4 8 12 14 12 10 7 13 19 15 14 21 25 30 29 30 33 34 36 32 30 30 32 32 28 21 32 38 44 45 47 45 43 40 36 30 28
2 6 3 4 4 3 6 5 7 5 5 6 6 5 5 9 10 15 23 28 29 31 32 35 40 41 35 29 30 31 32 28 25 22 34 40 41 41 41 38 34 26 22 26
7 4 2 7 4 3 12 7 6 4 3 8 6 7 8 9 13 14 18 26 28 29 33 35 38 44 45 39 34 32 27 25 23 17 20 30 34 33 32 29 27 23 24 29
4 2 6 7 3 4 6 3 3 7 8 16 13 7 3 4 10 16 21 22 25 32 34 35 36 40 45 41 36 32 27 19 13 9 10 16 20 21 20 21 23 23 27 28
6 4 4 3 5 4 3 3 3 7 11 6 6 3 6 6 11 19 22 24 26 29 32 37 42 47 48 39 36 29 21 16 10 4 5 8 11 14 19 23 28 26 25 22
1 7 2 5 7 3 4 5 5 4 5 8 10 11 11 7 11 14 19 25 28 31 33 36 43 48 46 41 33 23 16 10 4 6 4 9 12 15 19 18 19 21 21 10
4 1 2 6 3 11 12 6 2 4 5 6 8 9 7 7 7 12 16 21 25 28 29 32 38 45 46 43 28 22 10 5 3 3 3 3 6 8 14 17 17 17 12 11
5 2 5 7 13 8 5 6 6 4 5 4 5 13 12 5 11 11 16 20 22 23 28 33 34 40 43 42 29 22 8 1 11 14 13 15 13 14 11 11 15 18 15 17
6 1 7 9 3 2 2 3 5 12 7 13 10 11 3 25 32 21 24 20 22 24 27 30 37 39 37 41 26 23 4 2 4 13 11 11 11 13 14 13 10 13 13 12
3 5 11 12 17 14 23 24 19 16 11 17 22 30 21 22 23 29 28 20 19 20 25 31 36 38 39 35 25 21 17 8 5 7 0 4 7 6 9 11 11 11 11 11
3 8 12 18 15 16 24 27 20 20 24 22 30 27 27 26 22 26 19 16 16 20 24 29 31 39 37 35 28 22 22 14 12 12 12 10 9 13 13 14 12 14 12 11
2 11 10 22 14 20 29 27 25 26 26 28 27 29 29 32 28 14 10 13 16 21 25 27 31 34 39 39 30 21 22 20 19 15 14 17 18 19 17 15 11 8 7 9
9 9 11 23 15 20 19 17 16 18 20 19 19 23 22 20 16 10 10 12 16 20 23 25 30 33 35 40 27 17 22 18 13 11 11 10 11 16 15 13 12 10 9 8
13 13 8 11 13 12 10 5 16 20 20 17 16 20 18 18 11 7 10 10 16 18 22 24 27 36 32 34 25 14 16 14 15 16 14 15 15 13 14 13 12 13 13 14
20 8 4 4 10 20 18 14 15 5 13 10 15 16 19 10 5 11 8 15 18 19 24 24 28 33 28 28 18 6 9 14 15 16 15 15 14 13 13 14 12 12 10 12
6 11 6 6 10 18 14 7 7 14 17 11 25 14 2 1 5 7 23 21 24 24 24 25 29 32 26 24 18 10 9 11 14 15 17 16 16 15 15 14 15 13 12 12
4 4 12 12 12 11 13 22 23 14 19 10 3 4 6 8 12 26 24 25 23 22 25 26 28 28 22 21 15 11 11 13 15 17 17 17 17 14 14 14 12 11 11 13
7 5 7 8 9 13 14 9 14 19 20 12 13 17 24 30 31 31 29 23 24 23 23 24 25 23 19 15 11 9 13 16 17 16 16 15 15 15 13 11 14 15 13 15
6 10 7 9 10 17 20 23 30 32 34 39 37 38 33 30 28 26 29 25 23 21 19 21 20 18 12 6 8 14 19 17 16 17 18 17 15 13 14 16 17 17 18 20
7 18 13 19 22 33 37 42 41 39 38 39 36 32 29 28 27 26 21 25 19 19 17 15 17 10 4 9 16 18 18 17 17 20 19 17 17 19 19 20 20 23 24 23
18 18 17 24 32 38 35 37 39 38 39 38 37 35 28 28 25 23 19 18 18 17 13 11 8 7 13 17 18 16 16 14 18 18 18 21 21 20 21 23 23 23 23 22
6 8 11 20 35 30 36 36 36 38 40 37 31 31 29 25 24 15 16 17 14 11 9 5 11 19 21 20 19 15 13 11 14 19 21 22 21 20 20 20 22 21 21 21
Wind_Direction
42 152 215 244 241 271 294 284 289 289 285 302 308 308 325 316 307 329 316 318 328 329 337 342 343 332 320 308 307 298 291 284 264 251 246 246 247 249 249 250 249 249 248 249
360 272 248 17 276 269 274 296 297 290 288 308 317 305 318 331 318 310 313 324 346 354 351 352 348 345 341 328 320 304 294 292 273 257 251 249 249 249 251 251 253 251 247 244
192 260 334 310 300 295 302 293 304 303 307 291 297 292 305 307 305 302 321 23 6 359 351 351 351 348 342 338 332 317 300 287 275 261 256 252 249 250 251 252 254 254 247 231
239 311 54 21 310 291 303 267 288 304 322 306 347 302 311 307 313 315 32 17 4 1 353 351 353 347 342 338 336 332 311 286 276 264 252 251 252 250 253 253 253 252 252 234
278 335 330 306 276 256 293 320 291 291 288 292 286 258 293 310 329 33 16 11 10 4 3 359 353 350 350 347 340 342 327 291 278 258 255 254 251 254 251 254 255 255 261 241
335 303 1 325 342 17 319 330 295 288 274 262 29 272 323 18 8 16 7 5 7 2 359 2 2 2 355 350 344 343 342 312 291 268 254 252 254 252 247 248 256 257 253 230
340 346 14 18 344 5 1 354 319 300 290 271 326 321 281 27 34 30 13 4 4 4 3 360 359 359 358 352 349 343 338 322 302 294 260 253 255 254 255 255 257 255 235 221
1 292 20 358 44 332 307 333 293 289 294 297 299 254 142 62 34 25 20 10 7 7 5 2 358 358 356 356 352 343 341 330 307 290 261 251 252 253 251 244 234 224 213 206
356 271 333 45 343 322 353 292 334 278 274 270 264 224 187 33 20 17 12 7 3 0 358 359 359 3 357 355 350 344 344 340 328 280 205 220 230 229 226 219 222 212 177 159
70 290 270 320 333 358 257 309 267 225 271 268 259 263 256 23 7 5 4 3 0 358 354 350 357 359 0 352 349 345 352 352 348 315 218 195 196 200 206 192 180 156 132 143
4 230 310 326 281 295 286 266 250 284 255 256 281 264 109 75 14 2 4 358 354 349 346 344 347 352 356 356 347 338 352 9 50 107 139 143 169 167 155 144 132 134 136 151
4 319 287 285 280 299 221 264 259 245 278 285 295 265 144 357 9 351 356 348 344 343 342 341 341 347 352 355 346 331 331 155 136 129 128 105 124 133 142 124 113 113 113 124
4 12 311 293 150 98 24 313 310 315 287 262 263 262 209 322 317 326 326 334 337 337 338 342 344 346 345 350 347 331 305 12 355 114 109 111 124 115 109 115 117 106 107 118
228 218 236 256 278 296 285 279 287 289 275 277 258 280 277 288 289 302 312 322 327 335 337 339 342 342 343 346 338 327 290 253 220 231 113 119 121 142 143 132 134 131 135 115
233 261 255 262 278 288 282 279 285 271 266 260 277 272 282 271 286 290 301 315 322 336 339 338 339 340 339 339 337 311 284 230 198 214 220 214 187 151 138 147 142 127 123 105
241 274 281 274 275 275 279 281 277 268 265 258 259 267 271 284 285 272 297 303 323 332 337 337 338 340 340 338 329 291 274 245 231 202 172 157 160 151 143 131 131 124 96 82
265 271 278 278 292 295 288 284 277 271 261 267 269 272 281 290 274 261 292 306 315 325 331 335 337 340 340 343 334 287 265 238 212 190 168 157 146 144 148 137 126 104 96 78
251 260 259 284 300 269 267 304 300 286 282 289 281 274 281 271 278 258 266 297 315 322 328 333 338 341 343 343 338 293 250 217 187 174 165 153 150 143 136 124 111 100 90 86
223 233 256 263 263 278 294 279 276 293 301 295 294 289 298 251 238 271 319 324 316 323 326 328 339 341 340 335 319 260 200 179 169 154 147 141 134 129 113 101 89 87 91 79
183 212 226 256 278 282 296 258 266 324 289 294 288 303 245 96 300 315 325 318 319 323 324 328 337 338 338 338 312 259 181 163 140 131 127 126 118 109 99 91 89 85 68 64
257 242 241 256 262 269 267 260 272 276 278 307 243 5 347 306 301 306 310 304 314 317 320 327 333 335 336 330 301 253 200 157 131 124 115 104 98 91 85 90 84 79 74 65
274 288 272 271 259 273 242 250 231 261 282 282 287 290 294 296 301 305 306 304 314 314 317 325 331 337 331 320 275 215 162 140 132 119 116 114 103 92 84 90 83 79 67 62
258 218 263 237 256 272 272 267 273 279 281 283 285 291 293 289 292 293 301 307 310 314 313 322 333 333 307 277 217 165 136 138 134 127 113 98 89 98 95 84 79 72 62 56
258 261 255 277 256 266 270 271 270 273 272 273 275 279 282 279 283 289 293 313 309 314 314 320 334 308 234 165 152 140 136 131 123 111 104 106 103 92 87 81 71 62 56 47
273 289 266 271 277 286 276 275 275 273 269 267 269 270 269 275 284 286 297 308 310 306 315 330 322 186 151 146 134 127 125 122 110 107 107 98 92 84 76 70 64 57 54 46
227 272 284 287 302 294 295 296 290 279 269 261 257 263 264 264 269 274 300 299 300 305 326 311 172 151 142 135 122 119 112 103 114 105 99 93 89 85 79 72 66 61 56 48